CDT,Max TemperatureF,Mean TemperatureF,Min TemperatureF,Max Dew PointF,MeanDew PointF,Min DewpointF,Max Humidity, Mean Humidity, Min Humidity, Max Sea Level PressureIn, Mean Sea Level PressureIn, Min Sea Level PressureIn, Max VisibilityMiles, Mean VisibilityMiles, Min VisibilityMiles, Max Wind SpeedMPH, Mean Wind SpeedMPH, Max Gust SpeedMPH,PrecipitationIn, CloudCover, Events, WindDirDegrees
2013-8-1,88,75,62,68,64,61,93,67,40,30.10,30.05,29.97,10,10,7,9,4,13,0.00,0,,285
2013-8-2,78,73,67,73,68,64,100,85,69,29.97,29.94,29.89,10,7,1,16,6,20,0.47,6,Rain-Thunderstorm,146
2013-8-3,86,77,67,72,68,63,100,81,61,30.14,30.01,29.93,10,6,0,13,7,17,0.00,6,Fog,47
2013-8-4,77,70,63,67,63,59,93,77,60,30.17,30.12,30.05,10,10,10,13,6,16,0.00,3,,113
2013-8-5,83,76,69,74,70,66,97,86,74,30.06,29.96,29.84,10,10,9,17,7,22,0.00,7,,149
2013-8-6,87,79,70,74,71,67,100,83,65,29.94,29.87,29.81,10,7,0,33,8,43,0.46,5,Fog-Rain-Thunderstorm,170
2013-8-7,86,79,71,73,71,69,100,83,65,29.93,29.88,29.80,10,10,10,23,9,31,T,2,Thunderstorm,242
2013-8-8,80,74,67,71,68,65,97,86,74,29.99,29.94,29.91,10,10,9,13,6,15,0.00,2,,27
2013-8-9,78,72,66,71,68,65,97,84,71,30.09,30.02,29.96,10,9,4,8,4,10,0.02,3,Rain,47
2013-8-10,84,74,64,68,62,57,100,73,45,30.18,30.12,30.09,10,8,1,15,8,22,0.00,1,,30
2013-8-11,87,73,59,66,59,55,84,61,37,30.15,30.10,30.03,10,10,10,12,5,16,0.00,0,,121
2013-8-12,80,74,67,73,68,62,97,83,69,30.06,30.01,29.94,10,8,0,18,4,24,0.92,5,Fog-Rain-Thunderstorm,296
2013-8-13,79,71,62,67,62,58,100,77,54,30.13,30.05,30.00,10,8,0,15,8,18,0.00,0,Fog,12
2013-8-14,77,66,55,57,53,50,93,67,41,30.21,30.16,30.13,10,10,10,12,5,15,0.00,2,,95
2013-8-15,76,67,57,56,54,51,86,66,46,30.18,30.13,30.07,10,10,10,9,5,13,0.00,1,,111
2013-8-16,77,67,57,56,55,53,86,66,46,30.17,30.14,30.09,10,10,10,13,6,20,0.00,4,,66
2013-8-17,80,68,55,60,56,52,86,64,42,30.20,30.16,30.11,10,10,10,14,7,17,0.00,1,,62
2013-8-18,82,70,58,64,60,56,93,72,51,30.18,30.13,30.08,10,10,10,9,4,13,0.00,1,,103
2013-8-19,85,74,62,66,63,60,93,70,47,30.13,30.08,30.02,10,10,6,10,4,13,0.00,1,,155
2013-8-20,88,76,64,68,64,63,93,68,43,30.10,30.06,30.02,10,9,4,12,6,16,0.00,0,,174
2013-8-21,90,78,65,68,65,62,93,67,41,30.11,30.07,30.02,10,10,6,14,7,20,0.00,0,,178
2013-8-22,92,80,68,73,68,65,93,69,44,30.11,30.06,30.02,10,10,5,10,4,14,0.00,0,,206
2013-8-23,92,81,69,72,69,66,90,67,44,30.10,30.06,30.02,10,9,7,9,3,12,0.01,1,Rain,116
2013-8-24,94,82,70,72,67,61,93,65,36,30.18,30.14,30.09,10,9,7,12,7,15,0.00,1,,147
2013-8-25,92,80,67,69,64,58,93,63,32,30.25,30.19,30.14,10,10,6,12,6,14,0.00,0,,159
2013-8-26,95,82,69,72,69,64,97,71,44,30.21,30.14,30.06,10,9,2,15,8,19,0.00,1,,198
2013-8-27,96,83,69,71,66,61,100,67,34,30.09,30.04,29.99,10,9,3,20,9,25,0.00,0,,215
2013-8-28,94,81,68,70,65,61,84,59,33,30.05,30.01,29.99,10,10,10,14,6,18,0.00,0,,255
2013-8-29,97,83,69,72,69,66,93,66,38,30.06,30.01,29.96,10,10,7,12,5,14,0.00,1,,234
2013-8-30,100,87,73,72,69,65,87,60,33,29.96,29.91,29.83,10,10,10,17,9,23,0.00,1,,227
2013-8-31,100,87,73,75,71,67,87,62,37,29.84,29.80,29.75,10,10,10,18,8,27,0.00,0,,252